Wind_Speed
28 29 31 30 31 31 31 27 32 35 35 33 32 32 32 32 31 29 28 27 25 23 21 19 17 14 13 12 11 11 11 10 9 7 7 7 6 5 6 5 5 5 5 4 4 3 2 1 1 1 2 3 3 2 3 5 5 6 7 6 6 6 9 9 7 11 17 17 17 19 20 21 22 22 23 24 23 22 21 20 19 18 17 17 16
34 32 31 31 31 31 30 30 33 34 35 35 35 34 34 34 32 30 30 28 25 23 22 20 17 14 13 12 10 10 10 9 9 8 8 9 8 8 8 8 8 8 8 8 7 6 5 4 4 3 3 3 3 3 3 3 4 5 6 5 4 5 6 8 8 9 15 19 20 20 20 21 22 22 22 23 24 23 22 21 20 20 19 18 17
37 36 33 32 33 32 31 31 30 30 32 32 32 32 32 34 35 33 31 29 27 24 21 20 18 15 13 12 10 9 9 9 9 8 8 9 10 11 11 11 10 10 11 11 10 9 8 7 6 5 6 5 4 4 3 2 4 5 5 4 4 5 6 8 9 9 12 17 20 21 21 22 22 21 21 21 22 22 22 21 21 20 19 18 18
38 37 31 30 31 31 31 29 26 27 28 23 23 26 26 29 32 34 33 30 28 25 23 20 18 16 14 13 12 11 10 10 10 9 9 10 11 12 13 13 13 13 14 13 13 13 12 10 8 8 8 7 6 5 4 4 5 5 5 6 6 7 8 9 10 10 11 15 19 21 21 21 21 21 21 21 22 22 21 21 21 20 19 19 18
29 30 27 27 29 29 30 29 25 22 17 11 11 19 22 24 27 30 31 31 30 27 24 22 19 18 16 15 14 14 13 13 13 13 13 12 12 13 14 15 15 16 16 16 15 15 15 13 11 11 10 8 7 7 6 5 6 6 6 8 8 9 10 11 11 12 13 15 19 20 21 22 22 21 21 23 24 24 23 21 20 20 21 20 19
20 22 23 23 25 24 24 25 23 21 18 13 9 10 12 14 18 23 22 20 23 25 24 23 21 19 17 16 16 16 16 16 16 17 18 17 17 16 16 17 18 18 18 18 17 17 17 15 13 13 12 10 8 8 8 7 7 8 8 9 10 12 13 14 14 14 15 16 17 20 21 21 21 22 22 22 23 23 25 25 23 23 24 24 22
14 16 18 20 20 20 20 18 16 17 19 18 15 13 11 9 12 19 17 13 15 18 17 18 19 19 19 18 17 17 17 17 17 17 19 20 20 20 20 20 20 21 21 21 20 19 18 17 15 15 15 12 11 10 10 9 9 9 10 10 12 13 15 16 16 15 16 16 16 18 20 20 20 21 22 22 21 22 25 28 27 28 28 28 26
17 16 17 19 19 18 18 17 15 15 16 15 15 18 17 13 13 16 17 17 17 15 13 14 17 19 19 19 19 19 19 19 18 18 18 19 20 20 22 24 25 25 24 24 23 21 20 19 17 17 16 14 13 12 11 11 10 9 9 10 12 14 16 16 15 14 14 15 15 16 18 20 21 23 25 25 24 23 25 25 26 28 30 30 28
12 10 10 15 21 21 17 16 17 17 19 17 15 18 20 19 17 16 17 19 20 20 19 17 18 20 20 20 21 19 19 19 20 18 18 19 20 21 22 24 27 29 28 27 25 23 22 20 19 19 18 16 14 13 12 11 10 9 9 10 11 13 13 12 11 11 13 15 16 17 19 21 22 24 25 25 24 23 24 25 26 27 29 31 29
10 12 11 11 17 19 16 16 16 14 15 17 21 24 25 25 23 19 18 18 17 20 22 20 19 20 19 19 19 19 19 20 19 18 19 21 22 23 24 24 27 30 31 30 28 26 24 22 21 20 19 17 15 14 13 11 10 10 9 10 11 11 9 8 7 8 10 13 14 15 18 20 22 23 23 24 24 24 25 26 26 27 28 28 29
12 15 15 12 12 13 13 12 11 14 20 24 25 24 24 23 20 16 15 16 15 16 18 18 17 15 13 13 14 15 16 16 17 19 20 22 22 24 25 25 26 30 33 33 31 28 25 24 23 22 21 18 16 14 12 11 10 10 10 11 11 10 8 6 6 6 8 9 11 13 14 17 21 22 22 23 24 25 26 26 25 24 23 20 22
11 10 9 8 8 10 13 15 15 18 22 23 20 19 18 16 13 9 10 11 11 11 11 11 10 10 10 11 12 12 13 14 16 18 19 20 21 22 24 26 28 30 33 34 31 28 27 27 25 23 21 18 16 14 12 11 11 11 12 12 11 10 9 8 7 7 8 9 11 13 14 16 19 21 21 22 24 25 26 26 24 24 22 19 19
10 10 10 11 12 13 14 17 18 18 18 16 14 14 13 11 9 7 7 7 8 8 9 8 8 8 8 8 8 8 9 12 14 15 16 16 17 18 20 24 28 31 32 32 30 28 29 28 25 23 20 16 15 13 12 13 13 13 13 13 11 10 10 10 10 9 9 10 12 14 15 16 18 19 20 20 21 23 24 25 25 24 24 23 24
8 11 14 15 15 16 19 20 19 17 16 15 14 13 11 9 8 6 5 5 5 5 4 4 4 5 5 5 5 6 7 9 11 13 14 15 15 16 17 19 23 28 31 32 30 29 30 29 26 24 20 17 15 13 13 13 13 14 14 13 12 11 11 11 11 11 11 12 14 16 16 16 17 19 19 17 17 18 20 22 23 24 26 27 29
5 8 11 11 13 17 19 19 17 16 14 13 11 10 8 7 6 5 4 5 4 3 3 1 1 3 5 5 5 5 6 8 10 12 14 13 13 12 13 14 18 23 24 25 26 26 27 27 22 17 14 14 14 12 12 13 13 14 14 13 13 13 12 12 12 12 12 12 13 15 16 16 17 17 17 16 16 16 18 20 22 25 28 30 32
4 6 8 7 10 14 16 15 13 12 10 8 7 6 5 4 4 4 3 3 2 2 2 2 2 3 4 5 6 6 6 8 11 12 12 11 9 7 9 12 15 16 16 17 18 20 20 19 15 10 10 13 12 11 11 12 12 14 15 15 15 14 13 12 12 12 12 13 13 14 15 16 16 17 17 18 19 20 23 25 26 27 27 27 28
7 8 7 7 8 11 12 11 10 8 6 6 6 5 5 4 3 3 3 3 3 4 4 5 6 5 6 7 7 7 7 7 9 10 9 7 5 3 5 8 9 10 10 11 13 15 13 11 10 9 10 11 11 10 10 11 13 15 15 15 15 13 12 12 12 12 11 12 12 13 15 17 19 21 22 24 25 26 27 27 26 25 24 21 21
3 4 5 6 9 12 12 10 9 8 7 7 8 6 5 4 3 3 4 3 3 4 6 6 7 8 8 8 8 7 7 6 6 6 5 4 2 3 6 8 9 11 11 12 12 13 11 8 8 10 10 9 9 9 9 10 12 12 12 12 11 10 10 11 12 13 14 15 17 18 20 22 24 26 27 27 27 26 25 24 24 23 22 19 19
7 5 4 2 4 11 13 11 10 10 10 10 9 7 6 6 5 5 4 4 5 6 7 7 8 9 9 9 9 8 7 6 5 5 4 3 4 5 6 8 10 10 10 10 10 11 10 10 9 10 10 9 8 9 9 9 9 9 8 8 9 10 11 13 15 16 18 19 20 21 21 21 21 22 21 20 19 18 18 20 21 22 23 22 21
9 7 7 6 3 3 6 8 10 10 10 10 10 8 8 8 8 7 6 6 6 7 8 7 8 10 10 10 10 9 9 8 7 6 5 6 6 6 6 8 9 9 9 10 10 11 11 10 9 9 8 8 7 7 6 6 6 6 7 9 10 12 13 14 15 15 16 17 17 18 18 18 18 18 17 16 15 15 16 18 19 21 23 24 23
15 14 12 8 4 2 1 1 3 4 4 5 7 9 10 11 10 9 9 8 7 7 7 6 8 11 11 10 10 10 9 8 8 8 7 7 7 7 7 7 8 9 9 9 9 9 9 8 7 6 6 5 4 3 3 4 6 8 9 10 10 10 11 12 13 13 14 15 16 17 18 18 18 19 18 18 17 16 18 19 19 20 22 24 25
18 16 11 7 6 5 4 3 2 1 1 1 3 5 7 11 11 11 10 9 7 6 5 6 8 11 11 11 10 10 9 8 7 7 7 7 7 7 7 7 8 9 9 8 8 8 7 7 6 6 4 3 3 4 6 8 9 10 10 9 8 9 9 10 11 13 14 15 17 18 18 19 20 20 20 20 19 19 21 22 21 21 23 24 26
21 18 13 10 10 9 8 7 6 4 3 3 4 5 6 6 8 10 11 10 8 6 6 7 10 12 12 11 10 9 9 8 7 6 7 7 7 6 7 7 8 8 9 8 7 6 7 7 6 5 4 4 5 7 9 10 9 8 7 7 7 8 9 10 11 13 14 16 18 19 20 21 21 22 22 22 22 21 22 23 23 23 24 25 26
19 19 18 16 14 12 11 10 10 9 9 8 7 7 8 8 9 10 12 13 12 10 9 10 12 13 12 11 10 10 9 9 8 7 6 6 7 6 7 7 7 8 8 7 6 6 6 6 4 4 4 5 7 8 9 8 7 6 6 7 7 8 9 10 12 14 16 17 19 21 22 22 23 23 23 23 23 23 24 24 24 25 26 26 27
20 19 19 16 15 14 13 12 12 12 12 10 9 9 9 9 9 9 11 13 14 13 13 13 14 14 13 13 12 11 11 10 10 9 8 7 7 7 6 6 7 7 7 6 4 4 4 3 2 3 5 7 7 7 6 6 6 6 6 6 7 8 10 12 15 16 17 19 20 21 23 23 24 25 25 25 26 26 26 26 25 25 25 26 27
23 24 24 23 22 20 17 14 13 12 12 11 11 11 10 10 9 9 10 12 14 16 16 17 17 16 15 14 13 13 13 12 12 12 10 8 7 7 7 7 7 6 6 5 3 2 1 2 3 4 4 4 4 4 4 5 5 6 6 7 9 11 13 15 17 18 19 20 22 23 25 26 27 27 28 28 27 27 26 26 26 25 25 25 26
14 16 17 19 20 20 19 17 16 15 14 14 14 13 12 12 11 11 11 12 15 17 18 18 18 17 16 15 15 14 14 14 14 13 11 10 9 9 9 8 7 6 5 4 3 3 3 3 3 1 1 2 3 4 6 6 7 7 8 10 12 13 15 16 17 19 21 23 25 26 28 29 29 29 29 29 29 29 28 28 27 27 26 25 25
12 12 11 10 11 13 13 13 15 17 18 16 15 15 14 13 13 13 13 14 17 19 19 19 18 17 17 17 16 16 16 16 16 14 13 12 12 11 9 7 6 5 4 3 3 3 2 1 1 2 2 3 5 7 8 8 9 10 11 13 14 15 17 18 19 21 24 26 28 28 29 29 29 29 29 29 29 29 29 28 28 28 27 26 24
16 15 13 11 10 10 10 10 12 16 18 17 15 14 13 13 14 14 13 14 16 18 19 19 19 19 19 19 19 19 19 18 16 14 14 13 12 10 9 7 5 4 3 2 1 2 2 3 3 4 6 8 10 11 11 11 12 13 14 16 17 19 19 20 21 24 26 27 27 27 27 27 27 27 27 27 27 28 28 28 27 27 27 25 23
18 18 17 15 12 10 10 11 13 14 16 16 14 13 11 12 13 13 13 14 16 17 17 16 17 18 19 19 19 18 18 17 16 15 14 13 11 9 7 5 4 3 2 2 3 3 4 4 6 8 9 11 12 12 13 14 15 17 18 19 19 20 20 22 24 25 27 27 26 26 26 26 26 25 25 25 26 26 26 27 27 26 25 23 23
18 19 20 19 17 15 13 13 14 15 15 15 15 14 12 11 12 13 15 15 16 16 16 15 15 17 18 18 17 15 15 16 17 15 13 11 8 6 5 4 3 4 3 3 4 4 6 7 8 10 10 11 12 13 14 15 17 18 20 20 20 20 21 23 26 27 27 27 26 25 24 24 24 24 24 25 25 26 26 25 25 24 24 23 23
19 19 19 19 18 17 15 14 14 15 15 16 17 16 15 14 11 10 11 13 13 13 13 13 13 15 16 16 16 16 16 16 15 12 10 9 7 7 6 6 6 6 4 3 4 6 7 8 9 10 10 11 12 13 14 16 17 19 20 20 20 21 22 25 26 27 26 26 25 24 24 24 24 25 25 25 26 25 25 24 24 23 23 23 23
23 23 22 20 19 17 16 15 15 15 17 18 19 19 18 17 14 12 10 10 11 11 10 10 12 14 15 16 16 18 18 16 13 11 10 9 9 10 10 9 8 6 5 4 5 6 7 7 8 9 9 11 12 13 15 17 18 19 19 19 21 23 25 27 27 27 27 25 25 25 25 25 25 26 26 25 25 25 24 24 23 23 23 22 23
26 26 25 25 23 22 20 19 18 19 20 21 22 22 21 20 19 17 15 14 12 11 12 13 14 15 16 16 17 18 18 15 12 11 11 11 11 11 9 8 7 5 4 3 4 5 6 6 7 8 9 10 12 14 16 18 19 20 21 21 23 25 26 27 27 27 26 26 25 26 26 26 26 26 26 25 25 24 24 23 23 22 22 21 22
28 28 27 26 26 25 24 23 22 22 24 25 26 26 24 22 21 20 20 19 18 17 17 17 17 18 19 19 19 18 16 13 12 12 12 11 10 7 6 5 4 3 2 3 3 4 5 5 6 8 10 11 13 15 17 19 20 20 21 22 24 26 27 28 27 27 26 26 26 26 27 27 27 26 26 25 24 24 23 23 22 22 22 22 22
29 29 29 28 28 27 26 23 21 22 25 27 28 27 25 23 22 22 22 23 23 23 23 22 22 21 21 20 18 16 15 14 14 13 12 10 7 6 6 6 5 5 4 4 4 4 4 5 7 9 11 13 14 16 17 17 18 19 20 22 25 27 28 28 28 27 27 27 27 27 27 27 27 26 25 25 25 24 24 24 23 23 23 23 23
29 28 28 28 28 29 29 26 21 21 25 28 27 25 24 24 24 24 25 26 27 28 27 27 26 24 22 20 18 16 15 15 14 13 11 9 8 7 7 7 6 6 5 4 3 3 4 6 8 10 11 13 13 14 14 15 16 19 22 25 27 29 29 28 27 27 28 27 28 28 27 27 27 26 25 24 24 24 24 23 23 24 24 24 24
30 29 28 27 27 28 29 28 24 22 25 27 26 26 26 26 26 27 28 29 30 30 29 28 27 26 24 21 18 17 16 16 15 13 11 9 8 7 7 6 5 4 3 3 3 3 5 7 8 10 11 10 11 11 13 16 19 23 26 28 30 30 29 28 28 28 28 27 28 28 27 27 27 26 25 24 24 24 24 24 23 23 23 23 23
29 29 29 28 26 26 26 26 25 25 26 27 27 27 29 29 28 28 29 29 28 28 28 27 26 25 23 21 19 18 18 18 16 12 9 7 7 7 6 4 3 2 2 2 2 3 5 7 8 9 8 9 10 12 15 19 22 25 28 30 30 31 30 29 28 29 28 28 28 28 27 27 27 26 25 24 24 24 24 23 23 23 23 23 22
27 27 28 28 28 26 24 24 27 28 28 29 29 29 29 30 29 29 29 29 27 27 27 26 25 23 22 21 20 19 18 16 13 10 9 9 9 7 5 4 3 2 2 2 2 3 5 7 8 8 8 9 12 14 17 21 25 27 29 29 29 29 29 28 28 28 28 28 28 28 27 27 27 26 25 24 24 23 23 24 23 23 23 23 24
22 23 25 27 27 26 24 24 28 30 30 31 31 31 30 30 30 30 29 29 28 26 25 24 23 22 21 20 19 17 14 12 11 11 11 11 10 7 6 5 3 2 2 2 2 3 4 6 7 7 8 10 13 16 20 24 26 28 29 29 29 28 28 28 27 27 28 28 28 28 28 28 27 26 25 25 25 24 23 23 24 23 23 24 24
17 19 21 24 24 24 23 23 24 27 29 30 30 31 30 30 30 30 29 28 27 25 23 22 21 20 19 18 16 13 11 11 13 14 13 11 9 8 7 5 3 2 3 2 2 3 4 5 6 7 9 11 15 19 23 25 26 26 27 28 28 27 27 27 27 27 28 28 28 28 28 28 27 26 25 25 25 24 23 22 23 22 22 23 23
18 18 21 22 22 23 24 24 23 25 27 27 27 29 30 30 29 28 27 26 25 24 23 21 19 18 17 15 13 10 10 13 16 14 12 11 10 9 7 5 2 2 2 1 1 3 4 5 5 6 9 13 18 22 23 23 24 25 26 25 25 25 26 26 26 27 27 28 29 28 28 27 27 26 26 26 25 24 23 22 22 21 21 21 20
26 25 24 24 24 24 26 26 25 25 26 27 27 28 28 28 27 25 24 23 22 21 20 19 18 17 15 13 12 12 14 17 16 13 12 11 10 8 6 3 1 1 2 2 1 2 3 4 4 7 10 14 19 20 20 20 23 25 24 24 24 24 24 24 25 25 26 27 28 27 27 26 26 26 26 26 25 24 24 22 22 21 20 18 17
30 29 28 27 27 27 26 26 27 26 26 27 27 27 26 26 25 23 22 20 18 17 17 17 17 16 15 14 15 17 18 17 15 12 11 10 8 7 5 2 1 3 5 4 1 1 3 3 5 8 11 16 19 18 18 21 24 24 23 22 22 22 22 23 23 23 24 26 27 26 25 25 25 25 25 25 24 24 23 23 21 20 18 16 15
30 29 28 27 26 25 24 24 25 25 25 25 25 25 25 24 22 20 18 16 16 17 18 18 18 18 18 19 19 19 17 15 13 11 9 8 6 5 3 1 3 4 6 5 2 1 2 2 5 8 13 18 18 17 19 23 24 22 21 21 20 19 20 21 21 21 22 24 24 24 23 23 23 23 24 24 23 23 22 21 20 18 16 15 13
29 29 27 26 25 25 25 24 24 23 22 21 21 21 21 20 18 17 17 17 18 19 19 20 20 20 20 19 18 17 15 13 11 9 8 7 4 2 1 3 3 4 6 5 2 0 1 1 5 10 15 17 17 17 20 23 23 21 21 20 17 17 19 20 19 19 21 22 22 22 21 21 22 22 23 23 23 22 21 20 19 17 15 14 12
28 27 26 25 24 24 23 22 20 19 18 17 17 17 18 18 18 19 19 19 20 20 20 20 20 20 19 18 16 14 13 12 11 10 8 5 2 0 3 5 3 3 6 5 2 1 1 2 8 12 15 15 15 17 21 22 21 21 21 18 16 16 18 18 17 18 20 22 22 21 20 20 21 21 21 21 22 21 20 19 18 16 14 13 11
25 26 25 24 23 23 22 21 20 20 20 20 19 19 20 20 20 20 20 20 20 20 20 20 20 20 18 16 15 14 13 12 11 9 7 4 2 1 5 6 1 4 5 4 2 2 1 4 9 11 12 13 15 18 20 21 20 20 20 18 15 15 16 17 17 18 19 21 22 22 21 21 21 20 20 20 20 20 19 18 17 15 14 12 10
23 24 24 24 23 23 22 22 22 22 22 23 23 23 23 23 22 22 21 21 20 20 19 19 19 18 17 16 15 14 13 12 10 8 6 4 1 3 5 4 2 3 3 2 3 3 2 5 7 9 10 12 16 18 19 19 20 20 19 17 15 14 16 17 18 18 19 21 22 22 21 21 21 21 21 20 20 19 18 17 16 14 13 11 10
23 23 23 23 23 23 22 22 23 23 23 24 24 24 24 23 23 22 21 21 20 19 18 18 17 17 16 15 14 12 11 10 9 7 5 3 1 3 4 3 2 2 4 6 6 3 2 3 5 7 9 12 16 17 18 18 19 19 18 16 15 14 15 17 18 18 19 21 22 22 21 21 22 22 22 21 20 19 18 17 16 15 12 11 9
Wind_Direction
191 194 207 230 236 210 195 207 213 204 198 198 203 206 206 203 196 191 186 182 179 176 174 172 168 164 162 161 163 166 172 176 181 189 196 208 221 224 230 238 245 249 246 254 266 260 230 215 226 6 359 351 352 332 331 349 356 357 356 347 345 342 331 329 315 306 317 328 331 333 339 341 342 347 349 348 349 351 351 352 352 352 352 351 347
194 199 209 221 220 203 194 203 209 206 200 198 201 206 208 207 201 195 190 188 186 182 179 176 172 167 164 163 163 167 173 181 189 197 204 213 224 228 231 239 246 247 244 249 261 262 258 258 259 263 274 298 329 319 308 337 356 357 2 4 358 356 350 346 340 322 320 326 329 333 338 341 342 345 348 348 348 348 347 348 349 348 347 347 346
198 205 211 212 205 197 194 198 202 204 202 200 200 202 206 207 203 198 194 191 190 189 185 181 176 171 169 169 170 173 177 187 196 205 213 220 226 230 232 236 242 245 244 246 252 256 259 262 263 265 264 263 288 310 301 311 337 341 346 354 353 352 355 351 346 338 325 324 328 332 336 339 341 342 344 343 345 347 346 346 346 346 347 349 348
200 203 208 205 197 193 193 197 200 201 203 205 199 195 202 208 204 199 196 193 192 191 189 186 182 179 179 178 181 186 190 196 206 215 223 228 231 233 236 238 240 243 244 245 246 248 251 253 256 261 264 261 271 293 295 300 317 322 321 324 327 327 329 331 335 338 333 327 327 329 332 334 335 338 339 338 339 343 344 343 344 346 348 352 351
197 199 204 197 186 185 189 196 202 202 206 221 204 194 203 211 206 199 195 193 193 193 191 189 188 186 188 190 194 200 204 207 213 222 228 232 236 238 238 240 243 244 245 245 244 244 245 248 251 251 254 256 263 278 283 284 299 303 302 307 312 317 321 323 327 330 330 330 329 327 328 330 330 332 337 340 340 339 336 336 339 342 342 343 345
194 196 197 184 171 171 180 191 197 197 202 215 216 209 212 208 199 196 195 189 188 190 191 193 194 193 194 198 202 208 213 216 220 226 230 231 235 239 239 240 243 244 246 246 245 243 241 243 246 243 241 243 247 257 263 265 276 285 291 301 308 314 319 321 324 325 326 329 330 328 329 333 335 334 339 344 344 343 341 336 333 336 339 338 339
165 164 165 161 155 156 163 171 174 177 187 196 195 200 214 218 201 199 202 194 178 177 184 192 198 201 202 204 208 211 213 216 220 226 232 232 233 238 241 242 242 242 244 246 245 243 240 239 238 232 230 231 231 236 244 252 262 274 285 297 305 311 316 318 319 322 326 331 335 335 335 339 343 343 343 345 344 347 351 347 338 337 338 337 337
116 113 119 126 128 133 146 159 158 149 152 159 167 177 187 200 205 200 201 199 188 182 189 197 201 206 208 210 213 214 214 222 232 235 235 235 234 237 242 244 243 241 242 243 243 242 238 237 234 226 221 221 223 228 236 244 255 266 278 289 298 307 312 314 317 323 329 334 340 343 341 341 345 346 346 349 348 346 349 349 343 340 338 334 333
122 111 102 107 109 107 116 138 145 139 138 145 168 182 182 189 202 202 196 195 194 195 201 206 207 209 213 215 217 222 231 246 256 252 245 244 245 245 247 247 245 243 240 239 240 238 235 234 229 222 218 217 220 227 234 243 254 260 268 281 296 306 309 311 319 328 334 338 341 344 342 340 343 343 342 345 345 339 338 340 339 339 338 332 329
167 171 183 159 131 127 131 136 139 149 168 184 198 204 200 198 202 200 192 195 205 208 209 215 218 219 223 227 231 241 252 260 265 264 264 266 265 260 257 254 249 244 241 237 235 233 230 228 222 218 217 218 222 229 234 242 252 255 264 280 294 301 302 305 319 332 335 335 336 338 335 331 333 337 335 335 335 333 333 336 336 335 336 333 327
151 156 169 170 160 167 181 181 174 187 198 196 193 194 195 196 198 200 201 210 220 217 214 219 223 226 237 246 254 261 265 267 267 269 272 272 270 267 264 261 255 248 242 237 231 226 222 220 218 217 218 221 225 230 235 241 247 252 265 281 289 292 291 290 299 310 316 316 318 322 321 318 323 329 331 332 332 330 329 330 331 331 334 333 324
139 145 153 158 163 180 198 204 197 192 191 188 183 182 187 194 199 201 204 208 210 213 221 231 237 248 263 270 277 279 276 275 273 275 276 274 271 270 267 265 260 253 244 234 226 221 219 217 216 216 218 221 226 230 234 239 245 255 268 278 283 285 286 283 283 288 293 296 302 307 309 311 318 325 330 331 328 325 323 324 325 326 325 321 313
131 140 146 148 147 155 170 176 172 168 168 168 168 170 178 188 192 191 196 204 217 231 243 253 259 267 273 277 282 283 282 282 283 288 292 291 286 280 273 267 261 253 241 228 221 220 219 216 212 210 209 218 230 234 235 240 245 254 264 271 274 277 279 279 279 281 285 289 294 300 308 312 314 318 324 325 321 319 319 319 319 320 317 312 307
122 136 147 149 150 158 163 160 154 151 150 150 152 155 158 159 159 164 170 177 194 210 221 234 238 236 243 254 262 272 284 291 299 306 304 300 297 290 283 275 261 249 237 227 222 223 220 216 211 207 208 220 233 235 235 240 247 255 261 265 268 271 271 272 274 278 285 292 295 300 307 309 307 308 311 312 312 314 315 316 316 316 312 308 305
128 138 146 142 142 152 154 151 149 150 149 148 148 146 146 147 146 146 142 140 149 158 153 153 187 201 211 226 243 263 283 297 310 317 317 312 305 292 277 262 247 238 231 224 223 222 218 213 210 210 218 228 232 235 239 245 252 257 259 262 264 266 265 265 268 272 279 286 289 293 298 299 299 300 302 302 304 304 305 307 307 307 306 304 303
196 154 145 136 140 149 151 147 144 147 150 150 147 144 148 154 157 168 177 178 192 214 222 252 273 250 226 231 249 265 285 305 316 326 334 335 327 299 262 243 234 232 227 220 217 213 212 213 215 220 228 226 225 232 240 246 251 254 255 257 257 255 253 254 258 262 266 272 278 284 288 290 293 296 297 299 300 302 303 302 302 303 304 302 300
237 206 185 172 164 161 161 157 150 149 152 153 154 157 161 164 170 191 209 218 232 253 263 258 255 257 248 243 250 259 269 289 309 325 337 340 334 290 235 219 211 206 196 191 195 195 196 208 214 210 213 217 220 230 236 239 244 246 246 246 243 239 239 244 252 257 261 267 273 279 283 287 290 292 295 297 298 302 305 304 304 306 304 299 295
326 234 210 204 199 190 185 179 170 168 170 168 168 172 178 190 207 220 230 249 269 285 291 275 257 253 251 246 245 247 251 263 289 309 320 316 279 205 184 176 170 167 163 162 171 178 183 196 209 215 223 230 236 245 247 242 237 233 232 232 234 241 250 259 267 271 274 277 280 282 285 288 290 292 295 297 297 299 301 303 306 307 301 293 292
13 22 27 7 215 197 193 194 191 185 182 180 180 187 202 215 222 227 238 262 286 305 315 300 266 248 244 243 243 241 241 241 250 266 265 247 232 214 196 184 172 171 178 183 187 196 207 219 226 230 236 241 245 252 251 241 232 229 235 250 265 277 284 290 293 294 294 294 295 296 296 297 299 302 305 307 308 308 305 305 306 304 297 292 293
336 343 353 1 6 175 182 191 196 193 189 189 194 205 218 225 227 230 240 258 277 299 316 305 264 244 235 233 236 236 234 228 223 227 233 229 223 217 210 203 191 185 191 199 204 209 214 219 221 224 232 238 241 243 241 238 245 257 273 286 294 299 301 303 305 307 309 309 310 311 311 311 311 310 310 312 313 313 310 307 305 301 297 293 291
304 301 300 300 296 305 14 156 194 191 192 209 225 233 231 228 228 233 239 249 266 289 305 290 253 238 226 221 222 222 221 221 215 215 222 227 225 222 217 210 205 200 194 194 198 198 195 198 202 204 210 215 218 234 260 283 293 296 300 303 307 310 311 312 315 316 317 317 317 316 315 313 311 308 306 303 303 305 306 304 300 298 296 293 290
285 286 280 268 256 253 262 275 268 186 145 241 286 275 246 230 231 238 242 249 261 272 277 265 242 229 220 214 213 211 209 211 213 216 222 227 227 228 222 210 205 206 201 190 186 185 181 180 182 183 190 213 256 291 301 302 303 304 307 309 314 317 317 317 319 319 318 318 317 315 315 314 313 310 306 301 299 301 303 301 296 292 291 290 289
272 268 261 260 263 258 253 254 250 238 248 274 296 305 292 263 255 258 258 263 267 257 247 243 231 220 214 209 209 210 208 206 210 221 229 229 225 223 218 207 202 207 209 199 186 180 177 176 184 200 227 262 289 301 305 303 301 302 307 310 312 313 311 313 316 317 315 314 312 311 312 313 312 310 307 303 301 301 302 301 298 293 289 286 286
269 266 262 256 248 240 237 238 242 249 262 272 273 278 287 286 277 268 260 257 253 243 238 232 220 211 210 210 209 210 208 205 208 217 222 221 218 216 213 207 204 209 213 205 184 174 176 186 205 233 262 289 300 305 306 301 293 291 297 301 305 307 310 313 316 314 311 309 308 308 309 311 309 307 306 305 304 302 301 298 296 293 290 287 286
262 265 267 262 248 240 238 238 243 247 248 250 252 257 270 281 283 277 262 249 241 236 232 224 215 208 209 212 212 211 209 205 204 207 210 211 212 210 207 204 204 206 205 197 183 174 178 200 250 286 299 303 305 307 307 299 290 289 293 298 308 316 319 318 316 312 307 305 306 306 306 308 308 307 306 305 302 300 298 295 293 292 290 289 287
258 257 259 263 259 252 243 236 234 233 231 234 242 250 258 267 278 286 277 254 241 236 227 216 208 205 208 212 212 208 205 203 205 205 202 200 202 201 194 187 185 187 188 186 186 189 218 283 302 305 306 310 317 325 330 328 322 318 317 319 323 326 325 323 319 314 310 309 310 309 309 310 309 307 306 303 299 297 296 293 292 290 289 289 288
276 265 262 263 258 249 239 233 229 227 226 230 237 244 249 253 260 270 269 249 233 225 216 208 203 202 206 209 207 203 201 202 204 205 201 198 197 193 186 182 183 190 197 205 224 258 280 293 304 314 358 18 10 1 356 350 342 336 330 327 326 326 325 324 321 318 317 318 317 314 313 311 308 304 302 299 296 296 296 294 291 289 289 289 286
299 296 292 284 268 252 242 236 232 228 223 221 225 233 240 246 251 256 256 245 230 217 209 207 208 210 212 209 202 198 200 203 204 204 202 198 192 186 186 194 206 219 237 257 271 275 270 251 133 105 63 19 4 357 351 343 338 334 330 328 327 325 324 322 320 320 322 321 319 315 312 309 305 301 299 297 295 295 297 296 292 290 289 288 283
286 290 293 293 283 269 260 254 242 229 220 214 216 223 230 238 245 247 245 240 232 223 218 218 221 224 222 214 204 199 200 201 201 199 196 193 191 193 201 215 228 239 262 273 242 193 155 123 78 37 15 3 356 352 348 343 339 335 332 331 329 327 325 324 323 324 324 321 316 312 309 306 303 300 298 295 293 293 295 294 292 290 289 285 279
271 273 276 280 281 277 271 262 246 231 222 217 212 211 215 223 227 224 219 219 221 225 229 234 236 232 223 213 210 212 211 202 191 188 189 191 195 202 209 217 223 218 202 171 151 131 103 67 37 21 12 4 360 356 351 346 342 337 335 333 330 327 326 326 326 325 323 318 313 309 306 304 301 299 296 293 291 292 292 290 289 288 285 281 278
265 263 262 263 265 266 269 262 243 228 219 213 206 200 196 197 203 207 210 213 217 222 229 234 238 234 224 213 207 207 204 192 183 183 189 192 194 196 192 188 176 151 138 139 127 93 60 40 27 15 7 2 359 355 350 346 343 340 337 333 329 327 326 326 325 323 318 314 310 307 304 302 300 298 296 293 292 292 290 289 287 284 281 278 276
262 261 259 258 256 255 258 253 235 216 203 196 195 193 185 179 181 190 200 207 212 217 222 225 223 220 220 219 209 192 183 180 180 181 183 181 176 169 158 149 141 131 120 112 99 71 43 28 19 10 3 360 357 354 350 347 343 341 337 332 328 325 324 322 321 319 315 312 310 307 304 301 299 298 296 294 293 291 289 287 285 282 279 277 275
259 257 256 256 254 251 247 238 222 206 195 189 188 190 188 183 176 167 168 183 195 201 204 205 206 205 208 213 205 187 176 174 174 172 170 164 155 147 140 135 132 124 102 83 79 61 36 21 14 8 3 360 356 351 348 345 342 339 336 330 326 325 324 323 322 320 318 316 312 307 304 301 299 297 295 293 291 289 287 285 283 280 278 276 275
256 253 250 248 248 246 243 236 224 212 204 198 193 192 193 192 183 170 162 162 164 168 171 177 187 194 193 189 182 173 166 163 162 159 156 152 147 144 142 140 136 118 87 74 69 50 32 22 15 9 3 358 354 350 347 344 342 340 337 334 332 329 327 325 324 322 320 316 311 306 303 301 299 296 294 292 290 287 284 282 281 279 276 274 273
252 249 246 243 241 241 240 238 228 213 203 198 195 194 192 189 184 178 174 167 156 149 150 156 165 172 172 167 162 159 155 151 150 148 147 148 149 150 151 154 151 128 99 89 68 46 35 26 16 9 2 358 356 352 348 345 343 342 340 336 333 329 326 324 322 319 315 312 308 306 304 302 299 296 293 291 289 287 285 283 281 278 275 274 272
246 243 241 238 237 236 237 236 227 213 203 197 195 193 190 185 182 179 175 167 157 147 142 141 144 148 152 152 149 146 143 142 143 143 143 142 139 132 130 131 130 121 111 93 67 47 33 20 12 7 3 359 355 350 346 345 344 341 335 330 325 323 321 320 317 314 312 310 309 308 306 304 302 299 296 292 289 287 285 283 281 278 275 273 272
240 237 234 232 231 231 232 234 232 218 206 198 193 189 184 180 178 173 167 160 154 147 142 141 141 140 141 141 140 139 139 140 141 140 136 131 127 123 119 117 115 113 102 78 49 28 19 15 10 5 0 356 352 350 349 346 340 332 326 323 320 318 316 315 313 313 312 311 311 310 309 306 304 302 298 293 290 289 286 284 282 279 276 274 272
235 232 229 226 225 224 226 229 227 214 200 194 190 185 177 172 169 166 161 156 152 147 144 144 144 142 140 140 140 141 142 143 142 138 131 125 126 127 123 119 118 109 82 51 28 17 21 18 9 3 1 0 2 360 350 338 330 325 322 320 318 316 315 314 315 316 315 314 313 312 310 308 307 306 302 296 292 290 289 286 283 280 278 276 272
229 226 224 221 219 220 220 218 212 200 189 185 181 176 169 163 161 159 156 153 150 148 147 147 147 146 145 145 147 148 147 146 146 145 139 133 135 137 135 135 135 110 63 46 36 28 26 17 8 7 12 14 7 354 338 328 325 324 323 321 318 317 316 316 316 317 316 315 314 314 313 312 311 310 306 300 296 293 292 289 286 282 279 277 273
222 217 216 214 211 214 215 206 195 189 183 178 173 168 162 159 159 157 154 151 149 149 150 152 153 152 152 152 154 154 152 153 157 162 161 154 149 146 148 154 148 111 77 76 66 40 23 14 12 17 21 11 356 341 331 328 328 327 326 324 321 318 318 317 317 316 317 317 317 317 317 317 316 314 311 307 304 302 298 295 292 288 284 281 279
209 203 205 205 203 204 202 194 186 183 177 171 166 163 161 159 158 155 151 149 151 154 156 156 156 155 156 157 157 157 157 159 164 164 161 157 155 156 160 161 148 115 107 104 76 35 19 17 19 18 11 357 344 336 333 334 333 331 330 328 325 322 320 319 318 319 320 320 321 321 322 321 320 317 315 314 313 311 306 302 299 296 291 288 286
179 178 182 186 187 184 179 175 171 167 163 160 158 159 158 155 151 149 149 152 155 156 154 152 153 157 159 159 162 167 167 162 159 157 156 157 160 162 163 162 152 139 139 127 61 26 28 35 29 12 357 346 341 340 340 339 337 334 333 331 328 325 322 321 322 325 326 325 325 325 325 325 324 323 322 321 320 317 313 309 306 303 299 296 293
138 143 151 158 160 157 155 154 151 148 149 149 149 149 148 147 147 150 153 155 155 153 150 149 154 159 162 167 179 190 179 165 161 161 161 161 163 163 165 166 165 165 166 149 35 26 44 50 31 1 347 343 344 344 343 341 339 338 336 334 332 329 326 325 328 331 331 330 329 329 329 329 329 329 329 329 327 324 321 318 315 312 309 306 303
110 113 119 125 128 129 132 135 133 131 133 136 138 140 143 146 149 152 153 152 151 152 155 159 163 166 170 177 184 178 167 164 165 164 161 162 165 167 168 167 186 236 218 212 283 28 61 56 14 344 341 345 347 347 345 343 344 345 342 338 336 334 333 332 333 335 336 334 332 332 332 333 334 335 334 334 334 331 329 327 323 320 317 315 313
97 100 102 105 108 111 115 119 121 123 128 134 139 143 147 150 150 148 146 148 153 160 166 170 173 174 174 171 165 159 159 162 164 162 162 167 170 170 171 175 295 257 227 223 265 18 66 45 348 335 342 348 349 349 347 346 349 351 348 343 339 337 337 338 338 341 343 341 338 336 337 337 339 340 339 339 339 337 335 332 329 325 323 322 320
90 94 97 101 104 109 114 120 125 129 133 136 138 141 144 146 144 143 147 155 160 164 166 167 167 165 162 158 156 156 157 159 160 160 163 166 165 170 187 291 310 256 222 217 241 48 78 28 338 342 351 352 351 351 349 349 351 354 351 345 341 339 341 343 343 345 348 348 345 343 342 342 344 345 345 345 345 343 340 338 336 334 333 330 325
92 95 100 104 107 109 114 119 122 123 124 126 129 133 137 141 144 149 154 157 156 156 156 156 157 156 154 153 154 155 155 158 160 160 159 158 159 173 257 319 311 242 213 211 227 204 103 7 350 354 355 351 349 350 350 350 353 356 353 348 345 346 349 349 347 348 351 353 352 350 349 348 349 351 351 352 351 348 346 345 345 345 344 341 339
98 100 103 106 107 108 109 111 113 116 119 124 129 133 138 141 143 145 146 146 146 147 147 147 148 148 146 146 148 151 153 155 156 153 150 146 140 103 330 329 312 221 204 213 231 206 151 7 359 358 354 349 348 350 351 353 356 357 355 352 353 357 358 355 351 351 354 356 358 358 358 357 356 356 356 356 355 353 351 350 351 352 352 350 352
103 104 107 109 110 111 113 115 117 119 123 126 127 128 130 132 132 133 135 136 137 138 139 140 141 142 141 141 143 147 148 147 145 143 137 122 104 359 336 343 7 177 198 221 218 161 90 9 359 354 349 348 349 351 353 356 359 359 358 357 359 2 3 0 356 355 356 358 1 4 5 5 5 3 1 0 359 358 357 355 355 356 357 358 1
106 108 110 111 112 113 116 117 117 118 120 122 121 120 121 121 122 123 126 128 129 131 134 136 138 138 138 137 137 139 141 140 137 133 129 120 98 331 336 3 88 165 189 160 118 104 53 4 353 346 344 348 351 353 356 360 2 2 2 1 360 1 5 5 3 1 0 0 2 6 9 12 14 12 9 6 4 3 2 1 359 358 360 3 6
107 109 110 111 113 115 116 116 114 114 116 117 117 117 117 117 117 119 122 124 126 128 131 133 134 135 135 135 135 136 138 136 133 133 135 136 322 327 345 15 51 87 94 95 93 79 22 349 340 337 341 348 352 354 358 4 6 5 5 5 3 4 7 8 7 7 5 3 5 9 12 16 18 18 16 13 10 8 8 8 6 5 5 6 6
Height
793 796 800 802 802 801 800 801 803 805 806 807 809 811 812 813 814 814 815 815 815 816 817 818 819 821 822 824 825 827 828 829 830 831 832 834 835 836 837 838 838 839 839 840 840 841 841 841 842 842 842 842 842 842 842 842 842 841 841 841 841 842 841 841 840 838 835 836 835 834 833 832 830 830 828 827 825 825 824 824 823 822 821 821 821
787 791 794 796 797 797 797 799 800 802 803 804 806 808 810 811 813 813 814 814 815 815 816 817 818 820 821 823 824 825 827 828 829 830 831 833 834 835 836 837 838 839 839 840 840 841 841 841 842 842 842 842 842 842 842 842 842 842 842 842 842 842 841 841 841 839 836 835 834 834 833 832 830 830 829 827 825 824 823 822 822 821 821 820 820
785 789 791 792 793 793 794 796 798 800 801 802 803 805 808 810 811 811 812 813 814 814 815 817 818 819 820 822 823 825 826 827 828 829 830 831 832 834 835 836 837 838 838 839 840 841 841 841 841 842 842 842 842 842 842 842 842 842 842 842 842 842 842 841 841 840 838 836 834 833 832 831 831 830 829 828 827 825 823 821 821 820 820 819 819
785 788 790 791 791 791 793 795 796 798 799 801 802 803 807 810 810 810 811 811 813 814 815 816 818 819 820 821 822 824 825 826 827 828 828 829 830 831 833 834 835 836 837 838 839 839 840 841 841 841 842 842 842 842 842 842 842 842 842 842 842 842 842 841 841 840 839 837 835 834 833 832 831 830 829 827 826 825 824 822 821 820 819 818 818
787 786 788 790 790 790 792 794 796 797 799 802 804 804 806 810 810 811 811 811 812 813 815 816 818 819 820 821 822 823 823 824 824 825 826 827 828 829 831 832 834 835 836 837 837 838 839 839 840 841 841 842 842 842 842 842 842 842 842 842 842 842 842 841 841 840 839 838 836 835 834 832 831 830 829 827 825 824 823 822 821 820 818 817 817
784 784 786 788 788 789 792 795 796 796 798 801 805 808 810 811 812 812 813 813 813 814 816 817 817 818 820 820 821 821 822 822 822 822 823 824 826 827 828 830 831 833 834 835 836 836 837 838 838 839 840 840 841 841 841 841 841 841 842 842 842 842 841 841 840 840 839 838 837 835 834 833 831 830 829 827 826 824 822 820 820 820 819 817 817
782 783 785 785 786 788 791 794 796 796 798 800 804 809 813 816 816 813 813 815 816 816 818 819 819 819 819 819 820 820 820 820 821 822 823 823 824 825 827 828 829 831 832 833 834 835 835 836 837 837 838 839 839 840 840 841 841 841 841 841 841 841 841 840 840 839 838 837 837 836 834 833 833 831 829 828 826 825 823 821 819 819 819 818 817
783 785 786 785 786 788 790 792 795 797 800 803 806 809 812 817 819 816 815 818 818 818 819 821 821 820 819 818 818 819 819 820 820 821 822 823 823 824 825 826 827 828 830 830 832 832 833 834 835 835 836 837 838 838 838 839 839 840 840 841 841 841 840 840 839 839 838 837 837 836 834 833 832 831 829 828 826 825 825 824 822 820 819 818 818
782 784 788 789 789 790 792 793 794 797 799 803 809 812 811 812 815 816 817 818 818 816 818 820 820 820 819 818 818 819 819 819 819 820 821 821 822 822 823 824 825 826 827 828 829 830 831 832 833 834 834 835 836 836 837 837 838 838 839 839 840 840 840 840 839 839 838 837 836 835 834 833 832 831 830 829 829 828 827 825 823 821 819 817 816
780 782 786 790 790 790 792 793 795 798 800 802 807 809 809 808 809 811 812 813 813 813 814 816 817 818 818 818 818 819 819 819 819 819 820 820 821 821 821 822 823 824 825 825 827 828 829 830 831 832 833 833 834 834 835 836 836 837 837 838 838 839 839 839 839 839 838 837 836 836 834 833 832 832 831 830 830 829 827 825 823 821 820 816 814
781 782 784 787 789 789 791 792 794 798 801 802 804 806 807 807 808 808 808 809 810 811 812 814 814 815 816 817 817 818 818 818 817 818 818 819 820 820 820 820 820 821 822 822 823 825 827 828 829 830 830 831 832 833 833 834 834 835 836 836 836 837 837 838 838 838 838 837 836 836 835 834 832 832 831 830 829 828 826 826 824 822 821 819 815
783 784 784 786 787 788 789 792 795 798 799 801 803 804 805 806 806 807 807 808 810 810 811 812 813 814 814 815 816 816 816 816 815 816 816 817 818 818 818 818 818 818 819 819 821 824 825 826 826 827 828 829 830 831 832 833 833 833 834 834 835 835 835 836 836 837 837 836 835 835 834 833 832 831 830 829 828 827 825 824 824 822 821 820 818
785 785 785 787 788 789 790 793 795 797 799 801 802 803 804 804 805 806 806 807 808 809 810 811 811 812 813 814 814 815 815 814 814 814 815 815 816 816 816 816 816 816 816 817 819 821 822 823 824 825 826 828 829 830 831 831 831 831 832 832 833 833 834 834 834 835 835 834 834 833 833 832 831 830 830 829 827 826 824 823 822 821 820 819 817
788 788 788 789 789 790 792 793 795 797 798 800 801 802 803 804 805 805 806 807 807 808 809 810 811 812 813 813 814 814 814 814 814 814 814 813 813 813 813 813 813 814 814 814 816 819 820 820 821 823 824 827 828 829 830 830 830 830 830 831 831 832 832 832 833 833 833 833 832 831 831 831 830 829 828 828 826 825 824 822 821 820 818 816 814
790 790 790 790 791 792 793 794 795 796 797 799 800 801 802 803 804 805 806 807 808 808 809 810 811 812 812 813 813 813 813 813 813 813 813 812 812 812 812 812 812 813 814 814 816 818 820 820 821 822 824 826 827 828 828 829 829 829 829 830 830 831 831 831 831 832 832 831 831 830 830 829 828 827 827 826 825 824 823 822 821 819 816 813 811
791 791 791 791 792 793 793 794 795 796 797 798 799 800 801 803 803 804 805 806 807 808 809 810 810 811 812 812 812 813 813 813 813 812 812 812 811 811 811 811 812 813 814 815 817 819 821 821 821 822 824 825 826 827 827 827 828 828 828 828 829 829 829 829 830 830 830 829 829 828 828 828 827 826 825 824 823 822 821 820 819 818 815 812 809
792 791 792 792 792 793 794 794 795 796 797 798 799 800 801 802 803 804 805 806 807 807 808 809 810 810 811 811 811 812 812 812 812 812 812 812 811 811 811 812 812 813 814 816 817 819 820 821 821 822 823 824 825 825 826 826 826 826 827 827 828 828 828 828 828 828 828 828 828 827 827 826 825 824 824 823 821 820 818 817 816 816 814 811 807
793 792 792 792 792 793 794 794 795 796 797 798 799 800 801 802 803 804 804 805 806 807 807 808 809 809 809 810 810 811 811 812 812 812 812 812 812 812 812 812 813 814 815 816 817 818 819 820 821 822 822 823 823 824 824 825 825 825 826 826 827 827 826 826 826 827 827 826 826 826 825 825 824 822 821 820 819 819 817 815 814 814 812 809 807
795 793 793 792 792 793 793 794 795 795 796 798 799 800 801 802 803 803 804 804 805 806 807 808 808 808 809 809 809 810 810 811 811 812 812 812 813 813 813 814 814 815 815 816 817 818 819 820 821 821 822 822 822 823 823 824 824 825 825 825 825 825 825 824 824 824 824 824 824 823 823 822 821 820 819 818 817 817 816 814 813 812 810 808 806
796 795 794 794 793 793 794 794 795 795 796 797 798 799 800 801 802 803 803 804 804 805 806 807 808 808 809 809 809 809 809 810 810 811 812 812 813 813 814 815 815 815 816 816 817 817 818 819 820 820 820 821 822 822 823 823 824 824 824 824 824 823 823 822 822 822 822 821 821 821 820 820 819 818 817 816 815 814 814 813 812 811 809 806 805
796 795 795 794 794 794 794 795 795 795 796 797 797 798 799 800 801 802 802 803 803 804 805 807 808 808 808 808 809 809 809 810 810 811 811 812 812 813 814 815 815 815 816 816 817 817 818 818 819 819 820 821 821 822 822 823 823 823 822 822 822 821 821 821 820 820 820 820 819 819 818 817 817 816 814 813 813 812 811 811 810 809 807 805 803
796 795 795 794 794 794 794 795 795 795 796 796 796 797 798 799 800 801 801 802 802 803 804 806 807 807 808 808 809 809 809 810 810 811 812 812 812 813 813 814 815 815 815 816 816 817 817 818 818 819 820 821 821 821 821 821 821 821 820 820 820 820 819 819 819 819 818 818 817 817 816 815 814 813 812 811 810 809 808 807 807 806 804 803 801
795 795 794 793 793 793 794 794 794 795 795 795 796 797 797 798 800 800 800 801 801 802 803 804 806 806 807 808 808 809 810 810 811 812 812 812 813 813 813 814 814 815 815 815 816 816 817 818 818 819 820 820 820 820 820 820 820 819 819 819 819 819 818 818 818 818 817 817 816 814 814 813 811 810 809 808 807 806 805 804 803 802 801 800 799
794 792 792 792 792 792 792 793 793 794 794 794 795 796 797 798 799 800 800 800 800 801 802 803 804 805 806 807 808 809 809 810 811 812 812 812 813 813 813 814 814 814 815 815 816 816 817 818 818 818 819 819 819 819 819 819 819 819 819 819 818 818 817 817 817 817 816 815 814 813 812 811 809 807 806 805 804 803 802 801 800 799 797 796 795
791 790 789 789 789 789 789 790 791 791 792 792 793 794 795 796 797 798 799 799 799 800 800 801 802 804 805 806 807 808 809 810 811 812 812 812 813 813 813 813 814 814 814 815 816 816 817 817 818 818 818 818 818 818 818 818 818 818 818 818 817 817 817 816 816 815 814 813 812 810 809 808 807 805 804 803 801 800 799 797 796 795 794 792 791
787 787 786 785 785 786 786 786 787 788 789 790 791 792 794 795 796 797 797 798 798 799 799 800 801 802 803 805 805 807 808 809 810 811 811 812 813 813 813 814 814 814 815 815 816 816 817 817 817 817 817 817 817 817 817 817 817 817 817 817 816 816 816 815 814 813 812 811 810 808 806 805 804 802 801 800 798 797 795 794 792 791 790 789 787
784 783 782 782 782 782 783 783 784 785 787 788 789 791 792 793 794 795 796 796 797 797 798 799 800 801 802 803 804 805 807 808 809 810 811 812 812 813 813 814 814 815 815 815 816 816 816 816 816 816 817 817 817 817 817 817 817 816 816 816 815 815 814 814 813 812 810 809 807 805 803 802 800 799 798 796 794 793 792 791 789 787 787 785 783
781 780 780 780 780 780 781 781 782 783 784 785 787 788 789 791 792 793 793 794 794 795 796 797 798 800 801 802 803 805 805 806 807 809 810 811 812 812 813 813 814 814 815 815 815 815 815 815 816 816 816 816 817 817 816 816 816 815 815 815 814 814 813 812 811 809 808 806 804 802 800 799 797 796 794 792 791 790 789 788 786 784 783 782 779
779 779 778 778 778 778 779 779 780 780 781 782 784 785 787 788 789 790 790 791 792 793 794 795 797 798 799 800 801 802 804 805 806 808 809 810 811 812 813 813 814 814 814 815 815 815 815 815 815 816 816 816 816 816 815 815 815 814 814 813 812 812 811 810 808 807 805 804 802 800 798 796 794 792 791 789 787 786 785 784 782 781 780 778 776
776 776 776 777 777 777 777 777 777 778 779 780 781 783 784 786 787 788 788 789 790 792 793 794 795 796 797 799 800 801 802 804 806 807 809 810 811 812 812 813 813 814 814 814 814 815 815 815 815 816 816 815 815 815 815 814 814 813 812 812 811 810 809 808 806 805 803 801 799 797 796 793 791 789 788 785 784 782 781 780 778 777 776 774 772
772 772 773 774 775 776 776 776 776 775 776 778 779 780 782 784 785 786 787 788 789 791 792 793 795 796 797 798 800 801 803 804 806 807 808 809 810 811 812 813 813 814 814 814 814 815 815 815 815 815 815 815 815 814 814 813 813 812 811 810 809 809 807 806 805 803 801 799 797 795 793 791 789 787 785 782 780 778 777 776 774 773 772 770 768
769 769 770 771 772 774 774 774 773 773 774 775 777 778 780 782 784 785 786 787 788 790 791 792 794 795 797 798 799 801 803 805 806 807 809 809 810 811 812 813 813 814 814 814 814 815 815 815 815 815 815 815 815 814 814 813 813 812 810 809 808 807 806 804 802 800 798 796 794 792 790 788 785 783 781 779 777 775 773 772 771 769 768 766 764
766 766 767 768 769 770 771 771 771 771 772 773 775 776 778 780 782 784 785 787 788 789 790 792 793 795 797 798 799 800 802 805 806 808 809 810 810 811 812 813 813 814 814 814 814 815 815 815 816 816 815 815 815 814 814 813 812 811 810 809 807 805 804 802 799 797 795 793 791 789 787 785 782 780 778 776 774 772 770 768 767 765 764 762 761
762 762 763 764 765 766 767 768 768 769 770 771 773 774 776 778 779 781 784 786 787 789 790 791 793 794 796 798 799 801 802 805 807 808 809 810 811 811 812 813 813 814 814 815 815 815 816 816 816 816 816 815 815 814 813 813 812 811 809 807 805 803 801 799 797 795 793 791 789 786 784 781 779 777 774 772 770 768 766 764 763 762 760 758 757
756 757 758 760 761 762 763 764 765 766 767 769 770 772 774 776 778 779 781 783 785 788 789 791 793 794 796 798 800 801 803 805 807 808 809 810 811 812 812 813 814 814 815 815 816 816 816 816 816 816 815 815 814 814 813 812 811 810 808 806 804 802 800 798 795 793 791 788 786 783 781 778 776 774 771 769 767 765 762 761 759 758 756 755 753
750 752 753 755 756 758 760 761 762 763 765 766 768 770 771 774 776 778 780 782 784 786 789 791 793 795 797 798 800 801 803 805 806 808 809 810 811 811 812 813 814 814 815 816 816 816 816 816 816 816 815 815 814 814 813 812 810 809 808 806 804 801 799 796 793 791 788 786 783 780 777 775 772 770 768 765 763 761 759 757 756 754 752 751 750
744 745 747 749 752 754 756 758 759 761 762 764 766 768 770 772 774 776 779 782 783 785 788 790 792 795 797 799 800 801 803 805 806 808 809 810 811 811 812 813 814 815 815 816 816 816 816 816 816 815 815 815 814 813 812 811 810 809 807 805 802 800 797 794 791 788 785 782 779 776 774 771 769 767 765 762 759 757 755 754 752 750 748 747 746
737 739 741 744 747 749 752 754 756 758 760 762 764 766 768 771 773 775 778 781 783 785 787 789 791 794 796 798 800 802 803 805 807 808 809 810 811 811 812 813 814 815 815 816 816 816 816 816 816 815 815 814 813 812 811 811 810 808 806 803 800 797 794 791 788 786 783 779 776 774 771 768 766 764 762 759 756 754 752 750 748 746 744 743 742
731 733 736 740 743 745 748 750 753 755 757 759 762 764 766 769 773 775 778 780 783 785 787 790 792 794 795 798 800 802 803 805 806 808 809 810 811 812 813 813 814 815 815 816 816 816 816 816 816 815 814 813 812 812 811 810 809 806 804 801 797 794 791 789 786 782 780 777 774 771 768 766 763 761 758 756 753 751 748 747 745 743 741 739 737
725 728 731 735 739 742 745 747 749 752 754 757 760 763 765 768 772 775 777 780 783 785 788 790 792 793 795 797 800 801 803 805 806 807 808 810 811 812 813 813 814 815 815 816 816 816 816 815 815 814 813 812 812 811 811 809 807 804 801 798 795 792 789 786 783 780 777 774 771 768 766 763 760 758 755 752 750 748 746 743 741 739 737 735 733
721 725 729 733 737 740 743 745 746 748 751 754 757 761 765 768 771 774 777 780 783 786 788 790 792 794 796 798 800 802 803 804 805 807 808 809 810 811 812 814 814 815 815 815 815 815 815 814 813 813 812 812 812 811 809 807 805 802 799 796 793 790 787 784 781 778 775 772 769 766 763 760 758 755 752 750 747 745 743 740 738 736 734 732 730
721 724 728 732 736 739 741 744 747 749 751 755 758 761 765 769 771 774 777 781 784 787 788 790 792 794 796 798 800 802 803 804 805 806 807 809 810 811 812 813 814 814 815 815 815 814 813 812 812 812 812 812 811 810 808 805 803 800 797 794 791 788 785 782 779 776 773 770 767 764 761 758 755 753 750 747 745 742 740 737 735 733 731 729 727
724 727 730 734 737 739 742 745 749 751 754 757 760 763 766 769 772 776 779 782 785 786 788 790 793 795 797 798 800 801 802 804 805 806 807 809 810 811 812 813 813 813 814 814 813 813 812 811 812 813 812 812 810 809 806 804 801 798 795 792 789 786 783 780 777 774 771 768 765 762 759 756 753 751 748 745 743 740 737 735 733 731 729 727 725
728 731 734 737 740 742 745 748 751 754 756 759 762 765 768 772 775 778 780 783 785 786 788 791 793 795 796 798 799 800 802 803 805 806 808 809 810 811 812 812 812 813 813 813 813 811 810 810 812 812 811 811 809 807 805 803 800 797 793 790 787 784 781 778 776 773 770 767 764 761 758 755 752 749 747 744 741 738 736 733 731 729 727 725 723
734 737 739 741 744 747 749 752 754 757 761 764 766 769 772 774 777 779 781 783 785 787 789 791 793 795 796 798 799 800 802 804 805 806 808 809 810 810 811 811 812 812 812 812 812 810 809 810 811 811 810 809 808 805 803 801 798 795 792 789 786 783 780 778 775 772 770 767 763 760 757 754 751 748 746 743 740 738 735 732 730 728 726 724 722
742 743 745 747 750 752 754 757 760 762 765 767 769 771 774 776 778 780 782 784 786 788 790 791 793 795 796 798 799 801 803 804 805 806 807 808 809 810 810 810 811 811 811 811 810 809 809 810 811 810 809 808 806 803 802 799 797 794 791 788 785 783 780 777 775 772 769 766 763 760 757 754 751 748 745 743 740 737 735 732 730 727 725 723 722
748 749 751 753 755 756 759 761 763 765 767 769 771 773 775 777 779 781 783 785 787 788 790 792 794 795 797 799 800 802 803 804 805 806 807 808 808 809 809 809 809 810 810 810 809 808 809 810 810 809 808 806 804 802 800 798 795 793 790 787 785 782 780 777 775 772 769 766 763 760 757 753 750 748 745 742 740 737 734 732 730 727 725 723 721
754 755 757 758 759 761 762 764 766 768 769 771 773 775 777 779 780 782 784 786 788 789 791 793 795 796 798 799 801 802 803 804 805 806 807 807 808 808 809 808 808 809 809 808 808 808 809 810 809 808 807 805 803 801 799 797 794 792 789 786 784 782 780 777 775 772 769 766 763 760 757 754 751 748 745 743 740 738 735 732 730 728 726 724 722
760 761 762 763 764 765 766 768 770 771 773 774 776 777 779 780 782 784 785 787 789 791 793 794 796 797 799 800 801 802 803 804 805 806 806 807 807 808 807 807 807 808 808 807 807 808 809 809 808 807 805 804 802 800 798 796 793 791 788 786 784 782 780 777 775 772 769 766 763 760 757 754 751 748 746 743 741 738 736 733 731 729 727 725 723
765 765 766 767 768 769 770 771 773 774 775 777 778 780 781 783 784 786 787 789 791 792 794 796 797 798 800 800 801 802 803 804 805 805 806 806 807 807 807 807 807 807 807 806 807 808 808 807 807 806 805 803 802 800 798 796 793 791 788 785 783 782 780 777 775 772 769 766 763 760 757 754 751 749 746 744 741 739 737 734 732 730 728 726 725
769 769 770 771 772 773 774 775 776 777 778 779 781 782 783 785 787 788 790 791 793 794 796 797 798 799 800 801 802 803 803 804 804 805 806 806 807 807 806 806 806 806 806 806 807 807 807 806 806 805 804 802 801 799 798 796 793 791 788 786 783 781 779 777 775 772 769 767 764 761 758 755 752 749 747 744 742 740 738 735 733 731 729 728 726